User: anonymous   Login
Location: Unspecified
(0.0000°N, 0.0000°E)
Time: 22:50:28
(UTC+00:00)
Language:

Kosmos-2154 - Orbit

View from above orbital plane
View from above orbital plane
View from above satellite
View from above satellite

Ground track
Ground track

The orbit data is extracted from the following two-line orbital elements,

1 21666U 91059A   17113.91134105 +.00000022 +00000-0 +74888-5 0  9996
2 21666 082.9068 070.2390 0025894 137.5801 275.4741 13.73299634286216
Epoch (UTC): 23 April 2017 21:52:19
Eccentricity: 0.0025894
inclination: 82.9068°
perigee height: 968 km
apogee height: 1007 km
right ascension of ascending node: 70.2390°
argument of perigee: 137.5801°
revolutions per day: 13.73299634
mean anomaly at epoch: 275.4741°
orbit number at epoch: 28621

The dashed part of the orbit path shows where the satellite is in the earth's shadow,  

DLR